Regional Weather Roundup
Issued by NWS

Home | Current Version | Previous Version | Graphics & Text | Print | Product List | Glossary On
Versions: 1 2 3 4 5 6 7 8 9 10 11 12 13 14 15 16 17 18 19 20 21 22 23 24 25 26 27
000
ASUS45 KBOU 262107
RWRCO

WEATHER ROUNDUP FOR COLORADO
NATIONAL WEATHER SERVICE DENVER/BOULDER CO
300 PM MDT FRI AUG 26 2016

NOTE: "FAIR" INDICATES FEW OR NO CLOUDS BELOW 12000 FEET WITH NO
SIGNIFICANT WEATHER AND/OR OBSTRUCTIONS TO VISIBILITY.

COZ001>005-013-030-031-262200-
...NORTHWEST COLORADO...

CITY           SKY/WX    TMP DP  RH WIND       PRES   REMARKS
CRAIG          FAIR      77  29  17 W14G22    30.12F
HAYDEN         FAIR      70  32  24 S13       30.16S
MEEKER         TSTM      57  40  52 NW17      30.18R
MOUNT WERNER   NOT AVBL
STEAMBOAT SPGS PTSUNNY   68  32  26 W12G20    30.17F
WALDEN         FAIR      63  27  25 NW8G25    30.26F
$$

COZ006>008-011-262200-
...WEST CENTRAL VALLEYS...

CITY           SKY/WX    TMP DP  RH WIND       PRES   REMARKS
GRAND JUNCTION FAIR      75  48  38 NE3       30.10F
MONTROSE       FAIR      74  44  34 CALM      30.16F
EAGLE          PTSUNNY   72  37  28 NW6       30.18F
RIFLE          FAIR      76  42  29 W15G23    30.12F
DELTA          FAIR      81  43  26 S7        30.13F
NUCLA          FAIR     N/A N/A N/A W5        30.22F
$$

COZ017>023-064>068-262200-
...SOUTHWEST COLORADO...

CITY           SKY/WX    TMP DP  RH WIND       PRES   REMARKS
DURANGO        PTSUNNY   68  44  42 N14       30.24F
CORTEZ         FAIR      72  50  45 W10       30.20F
PAGOSA SPRINGS CLOUDY    60  45  57 N7        30.31S THUNDER
TELLURIDE      CLOUDY    55  43  64 S6        30.39S
WOLF CREEK PAS DRIZZLE   37  37 100 SW18      30.55S
$$

COZ009-010-012-014-032>034-037-058>063-262200-
...CENTRAL COLORADO...

CITY           SKY/WX    TMP DP  RH WIND       PRES   REMARKS
ASPEN          LGT RAIN  56  44  64 CALM      30.28R
BUENA VISTA    FAIR      66  33  29 W14       30.25F
COPPER MTN     PTSUNNY   48  32  53 CALM      30.51R
BERTHOUD PASS  PTSUNNY   39  28  65 NW14G22   30.51R
COTTONWOOD PAS FAIR      63  32  31 N3        30.37F
GUNNISON       FAIR      63  37  39 CALM      30.29F
KREMMLING      PTSUNNY   59  43  55 NW5       30.27F
LEADVILLE      FAIR      55  26  32 W16       30.36F
MONARCH PASS   FAIR      50  30  46 W16G25    30.60F
SALIDA         FAIR      70  35  27 N14G21    30.31S
SUNLIGHT       CLOUDY    55  41  58 NE5       30.46F
WILKERSON PASS FAIR      54  25  32 W7        30.47F
$$

COZ069>075-262200-
...SAN LUIS VALLEY/SANGRE DE CRISTO MOUNTAINS...

CITY           SKY/WX    TMP DP  RH WIND       PRES   REMARKS
ALAMOSA        FAIR      68  40  35 VRB5      30.25F
LA VETA PASS   NOT AVBL
SAGUACHE       FAIR      68  34  28 W8        30.26F
$$

COZ035-036-038>040-262200-
...NORTHERN COLORADO FRONT RANGE...

CITY           SKY/WX    TMP DP  RH WIND       PRES   REMARKS
DENVER INTL AP FAIR      77  39  25 VRB5      30.07F
DMNS CITY PARK   N/A     75  42  30 SW2G13    30.07F
AURORA         MOSUNNY   74  40  30 SW5       30.10F
FRONT RANGE AP PTSUNNY   77  37  24 CALM      30.10F
ERIE MUNI ARPT FAIR      78  40  25 S5        30.06F
BOULDER MUN AP FAIR      79  43  27 E3        30.07S
CENTENNIAL     PTSUNNY   71  39  31 NW3       30.11F
BROOMFIELD     MOSUNNY   77  43  29 S12       30.09F
FORT COLLINS   FAIR      66  54  63 E7        30.06S
LONGMONT       FAIR      79  44  28 CALM      30.08S
$$

COZ041-046-047-076>085-087-088-262200-
...PIKES PEAK/PALMER DIVIDE AND SOUTHERN FOOTHILLS...

CITY           SKY/WX    TMP DP  RH WIND       PRES   REMARKS
COLO. SPRINGS  PTSUNNY   71  44  37 S12       30.15F THUNDER
A. F. ACADEMY  TSTM      68  48  49 SW12      30.15F
SCHRIEVER AFB  NOT AVBL
ELLICOTT       NOT AVBL
FALCON         FAIR      71  43  36 SE7       30.19F
FORT CARSON    FAIR      72  46  38 VRB5      30.12F
LIMON          FAIR      71  47  42 S12       30.11F
MONUMENT HILL  FAIR      66  36  32 N8        30.20F
TRINIDAD       CLOUDY    74  48  39 NE7       30.13F
$$

COZ042>045-048>051-090-091-262200-
...NORTHEAST COLORADO...

CITY           SKY/WX    TMP DP  RH WIND       PRES   REMARKS
GREELEY ARPT   FAIR      75  46  35 CALM      30.06S
AKRON          FAIR      71  52  50 E10       30.07F
BURLINGTON     PTSUNNY   75  54  47 S16       30.07F
WRAY           FAIR      77  54  44 SE7       30.05
STERLING       FAIR      73  55  53 SE8       30.03F
HOLYOKE        LGT RAIN  61  55  82 NE12      30.09F
FORT MORGAN    FAIR      76  49  38 SE10G16   30.05F
$$

COZ086-089-092>099-262200-
...SOUTHEAST COLORADO...

CITY           SKY/WX    TMP DP  RH WIND       PRES   REMARKS
PUEBLO         FAIR      79  49  34 VRB3      30.06F
LA JUNTA       FAIR      79  50  36 VRB7G16   30.06F
LAMAR          FAIR      82  50  32 W10       30.01F
SPRINGFIELD      N/A     77  54  44 CALM      30.07F
$$




USA.gov is the U.S. government's official web portal to all federal, state and local government web resources and services.